This is the latest recevied weather packets stored in our database for station/object NA4DL. If no packets are shown the sender has not sent any weather packets the latest 10 day(s).
| Time | Temp. | Humidity | Pressure | Rain* | Wind** | Luminosity | Snow |
|---|---|---|---|---|---|---|---|
| 1777605661 | 10° C | 90% | 1015.3 hPa | 0 mm | - | 0 W/m² | - |
| 1777602639 | 10.56° C | 89% | 1014.7 hPa | 0 mm | - | 0 W/m² | - |
| 1777602019 | 10.56° C | 88% | 1014.6 hPa | 0 mm | - | 0 W/m² | - |
| 1777600217 | 11.67° C | 85% | 1014 hPa | 0 mm | - | 0 W/m² | - |
| 1777599617 | 11.67° C | 84% | 1014 hPa | 0 mm | - | 0 W/m² | - |
| 1777598417 | 12.22° C | 81% | 1014.1 hPa | 0 mm | - | 0 W/m² | - |
| 1777591816 | 16.67° C | 61% | 1013.7 hPa | 0 mm | - | 47 W/m² | - |
| 1777586418 | 18.89° C | 51% | 1013.9 hPa | 0 mm | - | 275 W/m² | - |
| 1777585818 | 19.44° C | 49% | 1013.9 hPa | 0 mm | - | 384 W/m² | - |
| 1777582819 | 18.33° C | 52% | 1014.6 hPa | 0 mm | - | 474 W/m² | - |
| 1777578617 | 17.78° C | 55% | 1014.9 hPa | 0 mm | - | 696 W/m² | - |
| 1777578017 | 17.22° C | 54% | 1015 hPa | 0 mm | - | 712 W/m² | - |
| 1777577440 | 17.78° C | 54% | 1015.2 hPa | 0 mm | - | 719 W/m² | - |
| 1777572659 | 16.11° C | 57% | 1015.4 hPa | 0 mm | - | 622 W/m² | - |
| 1777570819 | 16.11° C | 55% | 1015.7 hPa | 0 mm | - | 592 W/m² | - |
| 1777567837 | 15.56° C | 54% | 1015.6 hPa | 0 mm | - | 670 W/m² | - |
| 1777563638 | 14.44° C | 58% | 1016 hPa | 0 mm | - | 135 W/m² | - |
| 1777561218 | 13.89° C | 61% | 1016.1 hPa | 0 mm | - | 73 W/m² | - |
| 1777556440 | 11.67° C | 74% | 1016 hPa | 0 mm | - | 29 W/m² | - |
| 1777555260 | 11.11° C | 80% | 1016 hPa | 0 mm | - | 26 W/m² | - |
| 1777552821 | 10° C | 88% | 1016.1 hPa | 0 mm | - | 24 W/m² | - |
| 1777551021 | 8.33° C | 95% | 1015.8 hPa | 0 mm | - | 21 W/m² | - |
| 1777547422 | 7.78° C | 97% | 1015.1 hPa | 0 mm | - | 4 W/m² | - |
| 1777545622 | 8.33° C | 98% | 1014.5 hPa | 0 mm | - | 0 W/m² | - |
| 1777544423 | 8.33° C | 97% | 1014.4 hPa | 0 mm | - | 0 W/m² | - |
* Rain latest hour (hover to see other rain measurements)
** Current wind speed in m/s (hover to see current wind gust speed)